Regional Weather Roundup
Issued by NWS Jackson, KY

Home | Current Version | Previous Version | Graphics & Text | Print | Product List | Glossary On
Versions: 1 2 3 4 5 6 7 8 9 10 11 12 13 14 15 16 17 18 19 20 21 22 23 24 25 26 27 28
000
ASUS43 KJKL 281010
RWRJKL

EAST KENTUCKY HOURLY WEATHER ROUNDUP
NATIONAL WEATHER SERVICE JACKSON KY
600 AM EDT SUN AUG 28 2016

NOTE: "FAIR" INDICATES FEW OR NO CLOUDS BELOW 12,000 FEET WITH
NO SIGNIFICANT WEATHER AND/OR OBSTRUCTIONS TO VISIBILITY.

* THESE REPORTS ARE NOT UNDER NWS QUALITY CONTROL AND MAY NOT
  REPORT WEATHER SUCH AS PRECIPITATION AND FOG.

KYZ079-080-083-085-087-088-110-112-115-119-120-281100
...EASTERN KENTUCKY...

CITY           SKY/WX    TMP DP  RH WIND       PRES   REMARKS
JACKSON        PTCLDY    73  70  90 CALM      30.19R
LONDON         CLEAR     70  67  90 CALM      30.18R
SOMERSET*      CLEAR     66  66 100 CALM      30.17R
MONTICELLO*    PTCLDY   N/A N/A N/A W9        30.18R
WILLIAMSBURG*  SUNNY     66  66 100 SE6       30.19R
MIDDLESBORO*   FOG       67  67 100 CALM      30.20S VSB 1/4
HARLAN APT*    CLOUDY    70  68  94 CALM      30.21R
PIKE CO APT*     N/A     76  71  84 SE3       30.19R
BIG SANDY APT* CLOUDY    74  73  96 CALM      30.18R
MOREHEAD APT*  CLOUDY    70  68  94 CALM      30.18R
$$

KYZ035-036-041-042-044-050-067-078-099-281100
...CENTRAL KENTUCKY...

CITY           SKY/WX    TMP DP  RH WIND       PRES   REMARKS
MT STERLING*   PTCLDY   N/A N/A N/A CALM      30.18R
FLEMING/MASON* PTCLDY    69  69  98 CALM      30.18R
DANVILLE*      CLEAR     68  68 100 CALM      30.17R
LEXINGTON      CLEAR     72  69  90 NE3       30.15S
FRANKFORT      CLOUDY    74  71  91 CALM      30.14S
LOUISVILLE     PTCLDY    77  72  84 CALM      30.12S
LEBANON*         N/A     72  72 100 CALM      30.15S FOG
GLASGOW*       CLEAR     69  69 100 CALM      30.14R
BOWLING GREEN  CLEAR     71  70  96 CALM      30.12R
$$

KYZ091>093-OHZ055-061-077-WVZ005-015-034-035-042-281100
...SOUTHERN OHIO/WEST VIRGINIA...

CITY           SKY/WX    TMP DP  RH WIND       PRES   REMARKS
COVINGTON      CLOUDY    74  72  93 E3        30.15S
COLUMBUS       MOCLDY    68  67  96 N3        30.16R
DAYTON         PTCLDY    69  68  96 CALM      30.19R
WILMINGTON     CLOUDY    68  67  96 NE3       30.17R
HUNTINGTON     CLOUDY    73  71  93 CALM      30.15R
CHARLESTON     CLOUDY    73  71  93 CALM      30.16R
PINEVILLE*     PTCLDY    71  67  89 MISG      30.28R FOG
BECKLEY        MOCLDY    71  65  81 SE5       30.27R
BLUEFIELD      PTCLDY    68  63  84 VRB5      30.29R
LOGAN CO APT*    N/A     77  68  73 CALM      30.19R
$$

VAZ002-007-008-TNZ017-027-036-066-071-281100
...SOUTHWEST VIRGINIA/EAST TENNESSEE...

CITY           SKY/WX    TMP DP  RH WIND       PRES   REMARKS
WISE*          CLOUDY    73  61  64 S3        30.28R
JONESVILLE*      N/A     68  68 100 CALM      30.22R FOG
ABINGDON*      CLOUDY    76  70  81 E8        30.24R
BRISTOL        MOCLDY    74  70  87 W6        30.20R
MORRISTOWN*    SUNNY     72  68  88 SE5       30.16R
SEVIERVILLE*   SUNNY     68  66  94 CALM      30.16R
KNOXVILLE      PTCLDY    70  69  97 NE6       30.15R
OAK RIDGE      CLEAR     72  69  90 CALM      30.17R
CROSSVILLE     CLEAR     68  66  93 CALM      30.20R
NASHVILLE      CLEAR     73  70  90 CALM      30.12R
$$

...KEY TO REMARKS...
VSB - VISIBILITY IN MILES
WCI - WIND CHILL INDEX
HX  - HEAT INDEX

$$




USA.gov is the U.S. government's official web portal to all federal, state and local government web resources and services.